Погода в Убонратчатхани

Таиланд     15°15′17″N   104°52′05″E
темп.,
°C
ветер,
м/с
пор.,
м/с
влажн.,
%
обл.,
%
осадки,
мм/ч
давл.,
гПа
погр.,
м
22 октября, пт
пт2201:00+25ююз1191100 9.6 101116
04:00+23ссв2497100 9.0 1012164
07:00+24ссв349599 10.9 1014218
10:00+27в448387 0.0 1015715
13:00+28всв2376100 0.8 1012761
16:00+28св358198 3.5 1010237
19:00+23св6118995 6.3 1013410
22:00+22св6129194 1.4 1015348
23 октября, сб
сб2301:00+21ссв6129173 2.4 1013354
04:00+21св51390100 0.1 1013413
07:00+21св51288100 0.1 1015463
10:00+26св797341 0.0 1017876
13:00+27св5772100 0.0 1014944
16:00+25ссв4981100 0.0 1012316
19:00+23св6127874 0.0 1014475
22:00+22св6138224 0.0 1015439
24 октября, вс
вс2401:00+21ссв5128497 0.0 1014408
04:00+20ссв6138674 0.0 1013464
07:00+20ссв71588100 0.0 1015511
10:00+24ссв8147983 0.0 1015981
13:00+26ссв71377100 0.0 10121107
16:00+24ссв81381100 0.0 1011899
19:00+22ссв7148299 0.0 1013742
22:00+21св61580100 0.0 1014588
25 октября, пн
пн2501:00+21ссв61382100 0.0 1013562
04:00+21св5118499 0.0 1012487
07:00+22св61287100 0.0 1013534
10:00+23ссв61284100 0.0 1014686
13:00+26св8975100 0.0 10111028
16:00+25св71181100 0.0 1010796
19:00+23св5118398 0.0 1012441
22:00+22ссв5108496 0.0 1012385
26 октября, вт
вт2601:00+22ссв5108783 0.0 1011362
04:00+21св4109166 0.0 1010298
07:00+22ссв499089 0.0 1012364
10:00+26св5676100 0.0 1013735
13:00+29ссв5566100 0.0 10091241
16:00+27св5974100 0.1 1008647
19:00+24св41083100 0.1 1010348
22:00+23св61382100 0.0 1012570